Location: Clifton Park
(41.4873°N, 81.8024°W)
Time: 16:26:08
(UTC+00:00)

SKYMED 3 - Pass Details

Date: 21 January 2020
Orbit: 621 x 623 km, 97.9° (Epoch: 26 February)

Event Time Altitude Azimuth Distance (km) Brightness Sun altitude
Rises 10:43:51 0° 169° (SSE) 2,890 8.2 -23.1°
Reaches altitude 10° 10:46:02 10° 170° (S) 1,988 7.3 -22.7°
Maximum altitude 10:50:22 79° 258° (WSW) 640 4.4 -21.9°
Enters shadow 10:51:49 42° 338° (NNW) 900 5.1 -21.6°
